Regional Weather Roundup
Issued by NWS Albany, NY

Home | Current Version | Previous Version | Text Only | Print | Product List | Glossary On
Versions: 1 2 3 4 5 6 7 8 9 10 11 12 13 14 15 16 17 18 19 20 21 22 23 24 25 26 27 28 29 30 31 32 33 34 35 36 37 38 39 40 41 42 43 44 45 46 47 48 49 50
000
ASUS41 KALY 061510
RWRALY

NEW YORK STATE HOURLY WEATHER ROUNDUP
NATIONAL WEATHER SERVICE ALBANY NY
1000 AM EST FRI MAR 06 2015

NOTE: "FAIR" INDICATES FEW OR NO CLOUDS BELOW 12,000 FEET WITH NO
SIGNIFICANT WEATHER AND/OR NO OBSTRUCTIONS TO VISIBILITY.

NYZ032-033-038>043-046>054-057>066-NYZ062>081-061600-
EAST


CITY           SKY/WX    TMP DP  RH WIND       PRES   REMARKS
ALBANY         SUNNY     15  -2  46 NW7       30.53F WCI   5
GLENS FALLS    SUNNY      8  -1  66 CALM      30.51F
POUGHKEEPSIE   SUNNY     16   1  51 CALM      30.54F
NEWBURGH       SUNNY     16   1  53 CALM      30.52F
MONTGOMERY     SUNNY     16   0  49 CALM      30.51F
WHITE PLAINS   SUNNY     17  -1  45 N10       30.50R WCI   5
ISLIP          SUNNY     18   2  49 N12       30.50F WCI   5
NEW YORK CITY  SUNNY     19   4  51 NE5       30.55S WCI  12
CENTRAL PARK   SUNNY     18   3  52 VRB5      30.56S WCI  11
$$

NYZ005>009-017-018-044>046-055-056-061600-
CENTRAL


CITY           SKY/WX    TMP DP  RH WIND       PRES   REMARKS
FULTON         MOSUNNY   10   3  73 VRB3      30.51F
SYRACUSE       MOSUNNY    8   3  80 W3        30.52F
ROME           FLURRIES   6  -1  73 CALM      30.55F
ELMIRA         SUNNY     10   0  63 SW9       30.50F WCI  -3
BINGHAMTON     SUNNY      7  -1  70 SW5       30.41S WCI  -2
MONTICELLO     SUNNY     10   1  67 NW3       30.43F
$$

NYZ026>034-041>043-061600-
NORTH


CITY           SKY/WX    TMP DP  RH WIND       PRES   REMARKS
WATERTOWN      SUNNY     11  -1  58 VRB6      30.51F WCI   1
FORT DRUM      NOT AVBL
MASSENA        SUNNY      8  -5  55 SW15      30.50F WCI  -9
SARANAC LAKE   SUNNY      4  -9  55 W9        30.32S WCI -10
PLATTSBURGH    MIX PCPN   6  -3  66 SE8       30.48F WCI  -7
$$

NYZ001>004-010>016-019>021-061600-
WEST


CITY           SKY/WX    TMP DP  RH WIND       PRES   REMARKS
NIAGARA FALLS  SUNNY     10   0  63 SW16      30.49F WCI  -7
BUFFALO        SUNNY     11  -2  56 SW14      30.49F WCI  -5
DUNKIRK        SUNNY     12   0  58 S14G21    30.50F WCI  -3
JAMESTOWN      SUNNY      7   0  72 SW7       30.41S WCI  -5
WELLSVILLE     SUNNY      8  -2  63 S7        30.38S WCI  -3
ROCHESTER      MOSUNNY    9  -3  58 SW10      30.51F WCI  -5
PENN YAN       SUNNY      9  -1  64 S9        30.48F WCI  -4
$$

             KEY
       WCI = WIND CHILL INDEX
       VSB = VISIBILITY
       HX  = HEAT INDEX
$$



USA.gov is the U.S. government's official web portal to all federal, state and local government web resources and services.